Weather Roundup
Issued by NWS

Home | Current Version | Previous Version | Text Only | Print | Product List | Glossary On
Versions: 1 2 3 4 5 6 7 8 9 10 11 12 13 14 15 16 17 18 19 20 21 22 23 24 25 26 27 28 29 30 31 32 33 34 35 36 37 38 39 40 41 42 43 44 45 46 47 48 49 50
000
NZUS93 KARX 162010
HRRWXR

CURRENT HOURLY OBSERVATIONS ACROSS
MUCH OF THE UPPER MISSISSIPPI VALLEY
NATIONAL WEATHER SERVICE LA CROSSE WI
300 PM CDT WED AUG 16 2017


...SOUTHEAST MINNESOTA...


CITY           SKY/WX    TMP DP  RH WIND       PRES   REMARKS
ROCHESTER      CLOUDY    77  70  79 SE10      29.84F
ROCHESTER/MAYO MOCLDY    78  68  70 E10G20    29.84F
WINONA         MOSUNNY   81  66  61 E13       29.84F
AUSTIN         CLOUDY    77  70  78 E10G16    29.80F
ALBERT LEA     CLOUDY    81  73  78 SE9       29.79F
DODGE CENTER   PTSUNNY   79  68  69 SE10G18   29.83F
PRESTON        CLOUDY    79  67  67 SE13G18   29.85F
OWATONNA       CLOUDY    79  72  78 SE15      29.80F
FARIBAULT      CLOUDY    77  70  78 E9        29.81F
$$

...ELSEWHERE IN MINNESOTA...


CITY           SKY/WX    TMP DP  RH WIND       PRES   REMARKS
MINNEAPOLIS    CLOUDY    76  67  73 E12       29.82F
INTNL FALLS    LGT RAIN  68  61  78 E3        29.91F
DULUTH         LGT RAIN  61  60  97 E10       29.93F
RED WING       CLOUDY    81  64  57 SE13      29.81F
REDWOOD FALLS  LGT RAIN  68  66  93 NE7       29.77F FOG
MANKATO        CLOUDY    75  70  84 E12       29.78F
WORTHINGTON    LGT RAIN  66  66 100 E8        29.75F
FAIRMONT       LGT RAIN  76  71  85 E10G18    29.75F
$$

...SOUTHWEST WISCONSIN...


CITY           SKY/WX    TMP DP  RH WIND       PRES   REMARKS
LA CROSSE      PTSUNNY   88  69  53 E9G21     29.84F HX  92
PRAIRIE DU CHI PTSUNNY   83  67  57 SE10      29.82F
BOSCOBEL       PTSUNNY   86  70  58 VRB7      29.85F HX  90
LONE ROCK      CLOUDY    82  71  69 E13G20    29.87F
PLATTEVILLE    MOSUNNY   83  74  72 SE14      29.86F HX  90
FORT MC COY    CLOUDY    82  66  58 SE14G20   29.88F
CAMP DOUGLAS   PTSUNNY   81  66  61 E9        29.90F
MAUSTON-NEW LI MOCLDY    82  67  61 SE9       29.90F
VIROQUA        MOCLDY    80  70  73 SE12      29.90F
WIS DELLS      MOSUNNY   82  64  54 E12       29.91F
$$

...ELSEWHERE IN WISCONSIN...


CITY           SKY/WX    TMP DP  RH WIND       PRES   REMARKS
MILWAUKEE      MOSUNNY   78  66  66 E10       29.96F
MADISON        PTSUNNY   82  69  64 SE14      29.90F
GREEN BAY      PTSUNNY   77  68  73 NE10      29.98F
EAU CLAIRE     CLOUDY    78  65  63 E13       29.86F
BLACK RVR FLS  MOCLDY    84  63  49 SE9       29.88F
MEDFORD        CLOUDY    74  62  66 SE10      29.94F
WAUSAU         MOSUNNY   76  62  62 SE12G18   29.94F
WIS RAPIDS     CLOUDY    80  64  58 SE13      29.94F
MARSHFIELD     CLOUDY    79  62  56 SE12      29.93F
RICE LAKE      CLOUDY    75  64  68 E8        29.90F
$$

...NORTHEAST IOWA...


CITY           SKY/WX    TMP DP  RH WIND       PRES   REMARKS
WATERLOO       LGT RAIN  78  71  79 SE9       29.76F
DUBUQUE        CLOUDY    75  72  90 S14       29.87F
DECORAH        CLOUDY    81  72  74 SE9G18    29.83F
MASON CITY     CLOUDY    79  72  79 SE14      29.79F
CHARLES CITY   PTSUNNY   79  73  83 SE13      29.79F
OELWEIN        CLOUDY    79  73  83 SE15      29.81F
$$

...ELSEWHERE IN IOWA...


CITY           SKY/WX    TMP DP  RH WIND       PRES   REMARKS
DES MOINES     CLOUDY    83  70  64 S16G24    29.75F
IOWA CITY      MOSUNNY   82  74  76 SE16G28   29.78F
FORT DODGE     CLOUDY    75  70  83 S8        29.75F
MARSHALLTOWN   CLOUDY    77  74  90 E9        29.78F
CEDAR RAPIDS   CLOUDY    79  72  79 SE20G25   29.77F
$$

...NORTHERN ILLINOIS...


CITY           SKY/WX    TMP DP  RH WIND       PRES   REMARKS
CHICAGO-OHARE  PTSUNNY   86  67  52 E13       29.91F
CHICAGO-MIDWAY PTSUNNY   90  66  45 SE12      29.91F HX  92
MOLINE         PTSUNNY   82  72  71 S10       29.83F
ROCKFORD       PTSUNNY   89  68  49 SE16      29.90F HX  93
PEORIA         CLOUDY    84  74  71 S15       29.88F HX  91
$$

NOTE: "FAIR" INDICATES FEW OR NO CLOUDS BELOW 12,000 FEET WITH NO
SIGNIFICANT WEATHER AND/OR OBSTRUCTIONS TO VISIBILITY. WIND
SPEEDS ARE IN MILES-PER-HOUR.




USA.gov is the U.S. government's official web portal to all federal, state and local government web resources and services.